Location: Boisleux-au-Mont
(50.2094°N, 2.7825°E)
Time: 20:08:38
(UTC+00:00)

Daily predictions for brighter satellites

Satellite Brightness Start Highest point End
(mag) Time Altitude Azimuth Time Altitude Azimuth Time Altitude Azimuth
IRS-1A Rocket 4.5 19:46:27 10° SSE 19:52:13 88° WSW 19:58:08 10° NNW
SPOT 3 Rocket 3.8 19:50:30 10° SE 19:55:31 54° ENE 20:00:33 10° N
Cosmos 1743 Rocket 3.7 19:51:28 10° NNW 19:55:49 78° W 20:00:10 10° S
BREEZE-M DEB (TANK) 4.5 19:52:42 10° W 19:56:27 80° S 20:08:13 10° ESE
Resurs 1-3 3.7 19:53:14 10° SSE 19:57:38 89° W 20:02:03 10° NNW
Cosmos 1844 4.1 19:52:26 10° S 19:57:46 41° ESE 20:03:03 10° NE
BREEZE-M DEB (TANK) 4.1 19:53:45 10° W 19:57:57 52° S 20:04:58 10° ESE
Landsat 7 4.3 19:53:43 10° SE 19:58:16 48° ENE 20:02:52 10° N
Cosmos 968 Rocket 3.6 19:53:25 10° S 19:58:34 58° ESE 20:03:43 10° NNE
ATLAS 5 CENTAUR R/B 2.5 19:53:35 10° NW 19:58:55 65° NE 20:05:15 10° SE
ATLAS 2AS CENTAUR R/B 4.3 19:56:27 10° NW 20:03:13 32° NNE 20:09:35 10° ENE
BREEZE M DEB (TANK) 4.0 20:00:24 10° WSW 20:04:09 68° SSE 20:16:26 10° ENE
Intercosmos 25 Rocket 4.3 19:57:49 10° N 20:05:13 89° W 20:09:38 10° S
Cosmos 1486 Rocket 4.2 20:00:55 10° S 20:06:06 55° ESE 20:11:20 10° NNE
Cosmos 1500 Rocket 4.2 20:03:25 10° NNW 20:07:47 59° W 20:12:04 10° S
Cosmos 1833 Rocket 3.9 20:03:32 10° NNW 20:08:31 30° NE 20:13:28 10° ESE
IGS 5A 3.6 20:05:21 10° SSE 20:09:27 63° ENE 20:13:34 10° N
Cosmos 2221 3.7 20:07:41 10° SSW 20:11:50 46° WNW 20:16:03 10° N
BREEZE-M R/B 2.9 20:10:26 10° SSW 20:12:36 23° SSE 20:14:40 10° E
S3M 4.1 20:06:20 10° S 20:12:37 65° E 20:18:53 10° NNE
USA 186 4.3 20:12:45 10° SW 20:14:02 13° W 20:15:18 10° WNW
Cosmos 1666 Rocket 4.0 20:11:29 10° N 20:15:46 46° ENE 20:19:57 10° SSE
USA 215 4.2 20:13:31 10° ENE 20:19:46 50° N 20:26:01 10° WNW
Cosmos 1933 3.5 20:18:58 10° S 20:22:55 55° E 20:26:53 10° NNE
USA 305 3.6 20:19:11 10° WNW 20:23:22 53° N 20:27:33 10° E
USA 245 3.1 20:23:48 16° SE 20:25:12 29° ENE 20:27:12 10° N
Cosmos 1242 Rocket 2.7 20:24:58 10° S 20:28:26 49° E 20:31:54 10° NNE
OBJECT-B 3.5 20:26:22 10° SW 20:28:42 18° W 20:31:03 10° NW
Cosmos 1553 Rocket 4.3 20:25:11 10° SSW 20:31:17 70° WNW 20:37:32 10° N
BREEZE M DEB (TANK) 2.1 20:25:59 10° W 20:31:58 81° S 20:34:07 13° E
Cosmos 1437 Rocket 3.1 20:28:34 10° SSW 20:32:25 68° WNW 20:36:22 10° N
Cosmos 773 Rocket 4.4 20:27:25 10° NNW 20:32:38 54° ENE 20:37:01 14° SE
Resurs 01 Rocket 2.0 20:30:36 10° S 20:35:01 65° WSW 20:39:28 10° NNW
Sich 1 3.4 20:33:49 10° NNW 20:38:06 67° W 20:42:25 10° S
Spot 2 Rocket 3.7 20:34:12 13° SSE 20:38:37 60° ENE 20:43:36 10° N
COSMOS 2406 3.8 20:33:42 10° NNW 20:39:09 45° NE 20:43:43 14° ESE
SJ 16-02 3.2 20:38:19 12° ESE 20:39:18 13° E 20:41:20 10° ENE
Meteor 1-20 Rocket 4.4 20:35:30 10° NNW 20:41:10 75° W 20:46:40 10° S
Cosmos 2082 Rocket 3.5 20:36:51 10° NNW 20:41:44 29° NE 20:46:28 11° ESE
USA 306 3.5 20:38:20 10° WNW 20:42:34 57° NNE 20:46:47 10° E
CZ-4C R/B 3.1 20:37:17 10° NW 20:44:12 68° NE 20:51:18 14° ESE
Cosmos 1500 3.7 20:41:10 10° N 20:44:48 44° ENE 20:47:10 19° SE
Gbstr 26 Del rocket 4.4 20:38:16 10° WSW 20:46:13 85° N 20:53:00 10° ENE
Cosmos 1782 2.9 20:43:16 11° S 20:47:00 56° E 20:50:55 10° NNE
ERS-1 Rocket 3.2 20:50:52 17° SE 20:54:33 55° ENE 20:59:29 10° N
SPOT 5 3.3 20:52:52 18° SE 20:56:33 57° ENE 21:01:42 10° N
Cosmos 1503 Rocket 3.9 20:51:43 10° SSW 20:56:53 83° ESE 21:02:08 10° NNE
SOZ 4.1 20:57:20 10° WSW 20:59:52 89° SSW 21:02:13 10° ENE
USA 290 3.7 20:57:38 10° NW 21:00:34 31° WSW 21:02:58 13° SSW
Cosmos 1271 Rocket 4.3 21:00:22 19° ESE 21:01:27 21° E 21:04:29 10° NE
Cosmos 1151 Rocket 3.0 20:58:05 10° S 21:02:26 83° E 21:06:51 10° NNE
Cosmos 1777 Rocket 4.4 20:58:39 15° SSE 21:02:33 40° ESE 21:07:25 10° NE
Cosmos 1602 4.2 20:59:22 10° NNW 21:03:11 59° W 21:06:20 14° S
CREW DRAGON DEMO-1 DEB 2.6 21:00:33 10° WNW 21:03:12 68° N 21:04:38 23° E
Terra 2.3 21:02:23 20° SE 21:05:21 48° ENE 21:09:57 10° N
USA 307 3.2 21:03:41 10° WNW 21:07:57 65° NNE 21:11:25 15° E
Cosmos 2278 Rocket 2.9 21:05:44 18° SSE 21:09:05 34° ESE 21:14:08 10° NE
CZ-2C R/B 4.0 21:07:11 10° N 21:11:37 69° WNW 21:16:06 10° SSW
Cosmos 1515 Rocket 3.6 21:17:35 23° SSE 21:20:11 59° E 21:24:31 10° NNE
X-37B 1.9 21:17:33 10° WSW 21:20:09 24° SSW 21:20:09 24° SSW
SWARM C 4.5 21:17:59 10° N 21:21:19 83° W 21:22:53 29° S
SPOT 1/Viking Rocket 4.3 21:16:46 13° S 21:21:21 50° W 21:26:25 10° NNW
Cosmos 1844 Rocket 3.8 21:16:00 10° SW 21:21:22 47° NW 21:26:47 10° NNE
SWARM A 4.2 21:18:05 10° N 21:21:25 80° W 21:23:01 28° S
USA 308 3.1 21:17:09 10° WNW 21:21:27 71° NNE 21:24:23 20° E
Cosmos 2084 3.6 21:17:53 12° SSW 21:21:33 46° SE 21:25:38 10° NE
Cosmos 1536 4.2 21:18:51 10° N 21:22:21 27° ENE 21:23:48 22° ESE
ARIANE 5 R/B 3.0 21:20:39 19° S 21:23:39 59° WSW 21:27:57 10° NNW
JB-3 4.2 21:21:22 10° NNE 21:25:19 90° E 21:27:56 20° SSW
Cosmos 1437 2.6 21:25:46 29° SSW 21:27:01 71° WNW 21:29:52 10° N
Cosmos 1633 Rocket 4.1 21:23:46 10° NNW 21:27:55 42° W 21:31:23 14° SSW
Cosmos 1354 Rocket 4.4 21:23:02 10° SSW 21:28:15 67° WNW 21:33:31 10° NNE
Cosmos 2154 Rocket 4.4 21:23:16 10° N 21:29:27 51° ENE 21:33:02 25° SE
Cosmos 1812 2.6 21:31:31 27° S 21:33:31 84° ESE 21:37:25 10° N
Cosmos 1470 Rocket 4.1 21:32:49 10° NNW 21:37:13 58° W 21:39:57 22° SSW
Cosmos 2184 Rocket 4.0 21:31:18 10° N 21:37:35 79° E 21:41:19 26° SSE
Meteor 1-5 Rocket 4.2 21:33:20 10° NNW 21:38:47 76° W 21:42:00 25° S
Cosmos 1328 Rocket 4.3 21:36:50 11° SSW 21:41:01 52° WNW 21:45:22 10° N
NOSS 3-4 (A) 3.9 21:35:07 10° NW 21:41:58 78° NE 21:47:02 23° SE
NOSS 3-4 (C) 3.9 21:35:13 10° NW 21:42:05 77° NE 21:47:09 23° SE
ATLAS 5 CENTAUR R/B 3.4 21:38:25 10° WNW 21:43:29 34° WSW 21:47:13 19° S
Cosmos 2074 Rocket 4.0 21:39:12 10° N 21:45:33 89° W 21:49:23 26° S
Cosmos 1666 2.8 21:47:13 10° NNW 21:50:56 64° W 21:52:11 37° SSW
Cosmos 1933 Rocket 3.9 21:47:30 10° NNW 21:51:48 60° W 21:53:49 29° SSW
NOSS 3-3 (A) 3.9 21:46:40 10° SW 21:52:31 89° NW 21:59:18 10° NE
NOSS 3-3 (C) 3.9 21:46:47 10° SW 21:52:37 90° W 21:59:24 10° NE
Cosmos 1833 Rocket 2.9 21:47:16 10° NW 21:52:52 62° WSW 21:55:42 29° S
Nadezhda 1 Rocket 4.1 21:51:52 28° SSE 21:55:13 61° E 22:01:22 10° NNE
ATLAS 2AS CENTAUR R/B 3.1 21:48:09 10° NW 21:55:38 63° NE 22:00:32 21° ESE
Meteor 2-12 Rocket 4.4 21:49:46 10° N 21:55:53 82° E 21:59:01 31° SSE
Cosmos 1743 3.8 21:52:38 10° N 21:56:07 32° ENE 21:56:52 29° E
BREEZE-M DEB (TANK) 3.0 21:57:05 10° W 21:57:58 22° W 21:57:58 22° W
Cosmos 1538 Rocket 4.4 21:56:10 10° NNW 22:01:27 58° WSW 22:03:56 30° S
BREEZE-M DEB (TANK) 3.4 21:53:45 10° W 22:02:11 70° NNW 22:04:41 13° ENE
USA 215 3.7 21:55:53 10° E 22:02:18 62° NNE 22:08:43 10° WNW
USA 305 2.8 21:59:14 10° WNW 22:03:31 74° SSW 22:04:41 46° SE
Iridium 4 Rocket 4.1 22:01:47 21° SSW 22:05:37 66° W 22:11:32 10° N
Cosmos 1610 Rocket 4.4 22:01:26 10° N 22:07:37 87° E 22:10:38 32° S
Cosmos 158 Rocket 3.9 22:08:55 10° NNW 22:13:47 70° WSW 22:15:28 40° S
Cosmos 1733 Rocket 3.9 22:10:59 10° N 22:15:02 38° ENE 22:16:02 33° ESE
SJ 16-02 1.3 22:15:14 33° SSW 22:17:12 82° WNW 22:21:41 10° NNE
Cosmos 2228 Rocket 3.1 22:17:34 40° SSW 22:19:07 81° W 22:23:37 10° N
Cosmos 1680 Rocket 3.5 22:14:06 10° NNW 22:19:28 76° ENE 22:21:27 39° SE
Cosmos 2341 Rocket 4.2 22:13:57 10° N 22:20:19 63° ENE 22:23:08 34° SE
Meteor 1-27 Rocket 3.7 22:18:37 33° S 22:21:24 83° E 22:27:21 10° NNE
USA 306 2.9 22:18:23 10° WNW 22:22:36 59° SSW 22:23:05 55° S
COSMOS 2406 4.1 22:18:13 10° NW 22:23:24 37° WSW 22:25:47 26° SSW
Cosmos 1818 4.3 22:19:06 10° NW 22:24:26 48° NE 22:27:40 22° ESE
Cosmos 1937 Rocket 4.4 22:24:06 30° ESE 22:24:36 31° E 22:29:06 10° NE
Cosmos 2082 Rocket 2.3 22:20:42 10° NW 22:26:16 64° WSW 22:28:19 38° S
CZ-4C R/B 3.7 22:26:00 10° NW 22:32:46 42° WSW 22:36:28 27° SSW
Gbstr 26 Del rocket 4.1 22:26:23 10° WNW 22:33:55 83° N 22:40:01 10° E
ERBS 3.9 22:32:27 10° NW 22:35:30 33° NNE 22:37:05 21° ENE
Cosmos 1271 Rocket 3.9 22:35:27 26° WSW 22:37:11 39° WNW 22:40:59 10° N
Cosmos 2218 Rocket 4.3 22:33:21 10° N 22:39:33 58° ENE 22:42:06 35° SE
Terra 3.5 22:41:15 19° SW 22:43:20 25° W 22:47:16 10° NW
Okean 1 3.6 22:46:34 52° E 22:46:40 52° E 22:50:33 10° NNE
USA 307 3.4 22:43:47 10° WNW 22:47:31 43° SW 22:47:31 43° SW
Cosmos 1340 Rocket 3.0 22:45:07 10° NNW 22:49:10 60° W 22:49:40 55° SW
Cosmos 2278 Rocket 3.0 22:47:33 10° SW 22:53:01 49° NW 22:58:32 10° NNE
Spot 4 3.8 22:53:27 51° S 22:54:38 77° WSW 22:59:32 10° NNW
Cosmos 1544 3.8 22:51:41 10° NNW 22:55:05 40° W 22:55:12 40° W
Cosmos 1515 3.5 22:55:28 77° E 22:55:28 77° E 22:59:13 10° NNE
Cosmos 1862 Rocket 3.6 22:57:00 58° ESE 22:57:22 60° E 23:01:39 10° NNE
Cosmos 1536 4.1 22:55:11 10° NNW 22:58:46 30° W 22:59:30 28° WSW
Cosmos 1898 Rocket 3.4 22:57:39 48° S 22:59:08 77° ESE 23:04:29 10° NNE
USA 308 3.9 22:57:19 10° WNW 23:00:29 34° WSW 23:00:29 34° WSW
Cosmos 2369 Rocket 3.2 23:03:27 29° ESE 23:03:59 29° ESE 23:08:46 10° NE
RESURS DK-1 4.2 23:04:17 10° NNW 23:07:52 26° NE 23:09:53 18° E
COBE Rocket 4.1 23:07:04 47° SE 23:08:24 68° ENE 23:13:31 10° N
Gblst 52 Del rocket 4.4 23:01:33 10° WNW 23:08:32 88° NNE 23:14:35 10° ESE
Meteor 2-9 Rocket 4.2 23:02:56 10° NNW 23:08:48 90° WNW 23:10:35 47° S
SL-8 Rocket 4.0 23:02:54 10° NNW 23:09:15 79° W 23:11:34 42° S
Cosmos 1975 2.7 23:08:03 10° N 23:12:03 74° E 23:12:12 73° ESE
Cosmos 2084 Rocket 3.4 23:08:28 10° NW 23:12:45 85° NE 23:13:20 66° SE
Cosmos 1943 Rocket 2.3 23:11:55 48° SSE 23:13:07 59° ESE 23:18:39 10° NE
SAR-Lupe-2 4.0 23:11:22 10° NNE 23:14:31 54° ENE 23:14:31 54° ENE
ALOS 2 2.5 23:16:05 66° SSW 23:16:37 79° WSW 23:21:03 10° NNW
Cosmos 44 3.6 23:14:27 10° NW 23:19:51 62° WSW 23:20:48 53° S
DNEPR-1 R/B 4.2 23:19:56 50° SSE 23:20:51 57° SE 23:25:44 10° NE
Cosmos 1707 Rocket 4.3 23:20:01 37° WSW 23:21:06 45° WNW 23:25:21 10° N
Meteor 2-4 Rocket 4.0 23:20:31 43° SE 23:22:01 56° E 23:27:32 10° NNE
Cosmos 990 Rocket 4.4 23:20:02 33° SW 23:22:14 60° WNW 23:27:28 10° NNE
Okean 1-7 3.5 23:30:15 45° ESE 23:30:26 46° E 23:34:32 10° NNE
Cosmos 372 Rocket 4.0 23:30:36 54° SSE 23:31:22 61° ESE 23:36:25 10° NNE
Cosmos 1743 4.4 23:28:38 10° NW 23:31:44 24° W 23:31:55 23° W
Cosmos 1238 Rocket 4.4 23:28:37 10° NNW 23:34:45 49° W 23:36:39 36° SW
Meteor 1-18 Rocket 4.2 23:33:04 47° SSW 23:34:49 81° WNW 23:40:27 10° N
SL-24 R/B - RUBIN 2 4.3 23:31:57 10° NW 23:37:09 44° WSW 23:37:29 44° SW
SeaSat 1 2.8 23:33:07 10° NE 23:37:53 46° ESE 23:38:19 44° SE
Cosmos 1656 Rocket 4.4 23:39:04 33° ESE 23:39:46 34° ESE 23:44:41 10° NE
Cosmos 2242 Rocket 3.6 23:40:22 62° SE 23:40:44 65° E 23:45:10 10° NNE
USA 215 3.2 23:42:21 35° SE 23:45:18 68° SW 23:51:50 10° WNW
ATLAS 2AS CENTAUR R/B 3.3 23:39:36 10° NW 23:46:20 41° WSW 23:47:57 36° SSW
Cosmos 2297 4.0 23:45:51 33° SW 23:48:23 64° WNW 23:54:03 10° NNE
CZ-2D R/B 4.5 23:49:24 10° ENE 23:51:22 12° E 23:53:20 10° ESE
SJ 16-02 4.0 23:54:09 10° W 23:56:33 14° NW 23:58:58 10° NNW
